Time,TemperatureF,DewpointF,PressureIn,WindDirection,WindDirectionDegrees,WindSpeedMPH,WindSpeedGustMPH,Humidity,HourlyPrecipIn,Conditions,Clouds,dailyrainin,SoftwareType,DateUTC
2013-11-28 00:12:00,22.0,15.0,-100.00,East,96,5.0,8.0,75,0.00,,,0.56,,2013-11-28 05:12:00,
2013-11-28 00:22:00,21.0,15.0,-100.00,ENE,59,4.0,7.0,74,0.00,,,0.56,,2013-11-28 05:22:00,
2013-11-28 00:43:00,21.0,14.0,-100.00,East,99,4.0,6.0,74,0.00,,,0.56,,2013-11-28 05:43:00,
2013-11-28 00:53:00,21.0,13.0,-100.00,ENE,78,4.0,6.0,73,0.00,,,0.56,,2013-11-28 05:53:00,
2013-11-28 01:12:00,19.0,15.0,-100.00,NE,44,3.0,5.0,81,0.00,,,0.56,,2013-11-28 06:12:00,
2013-11-28 01:22:00,19.0,15.0,-100.00,NNE,21,2.0,4.0,83,0.00,,,0.56,,2013-11-28 06:22:00,
2013-11-28 01:42:00,19.0,15.0,-100.00,NE,55,4.0,6.0,84,0.00,,,0.56,,2013-11-28 06:42:00,
2013-11-28 02:11:00,19.0,15.0,-100.00,ENE,72,5.0,7.0,85,0.00,,,0.56,,2013-11-28 07:11:00,
2013-11-28 02:42:00,18.0,15.0,-100.00,NNE,32,3.0,4.0,87,0.00,,,0.56,,2013-11-28 07:42:00,
2013-11-28 03:11:00,18.0,15.0,-100.00,North,10,3.0,4.0,88,0.00,,,0.56,,2013-11-28 08:11:00,
2013-11-28 03:53:00,18.0,15.0,-100.00,NE,44,4.0,5.0,89,0.00,,,0.55,,2013-11-28 08:53:00,
2013-11-28 04:11:00,18.0,15.0,-100.00,NNE,17,2.0,3.0,89,0.00,,,0.55,,2013-11-28 09:11:00,
2013-11-28 04:22:00,18.0,16.0,-100.00,NNE,25,2.0,3.0,89,0.00,,,0.55,,2013-11-28 09:22:00,
2013-11-28 04:43:00,18.0,15.0,-100.00,NNE,30,2.0,3.0,89,0.00,,,0.55,,2013-11-28 09:43:00,
2013-11-28 04:53:00,18.0,15.0,-100.00,NNE,21,2.0,2.0,89,0.00,,,0.55,,2013-11-28 09:53:00,
2013-11-28 05:12:00,18.0,15.0,-100.00,NNE,20,2.0,3.0,89,0.00,,,0.55,,2013-11-28 10:12:00,
2013-11-28 05:23:00,17.0,15.0,-100.00,NW,312,3.0,4.0,90,0.00,,,0.55,,2013-11-28 10:23:00,
2013-11-28 05:43:00,18.0,15.0,-100.00,NW,318,2.0,3.0,90,0.00,,,0.55,,2013-11-28 10:43:00,
2013-11-28 06:12:00,18.0,16.0,-100.00,WNW,301,2.0,2.0,91,0.00,,,0.55,,2013-11-28 11:12:00,
2013-11-28 06:42:00,17.0,15.0,-100.00,North,6,1.0,2.0,90,0.00,,,0.55,,2013-11-28 11:42:00,
2013-11-28 06:52:00,17.0,15.0,-100.00,NNW,337,3.0,4.0,90,0.00,,,0.55,,2013-11-28 11:52:00,
2013-11-28 07:12:00,18.0,15.0,-100.00,NNW,342,2.0,4.0,89,0.00,,,0.55,,2013-11-28 12:12:00,
2013-11-28 07:22:00,18.0,15.0,-100.00,NW,326,2.0,2.0,90,0.00,,,0.55,,2013-11-28 12:22:00,
2013-11-28 07:42:00,18.0,15.0,-100.00,NNW,332,2.0,3.0,90,0.00,,,0.55,,2013-11-28 12:42:00,
2013-11-28 07:52:00,18.0,15.0,-100.00,North,349,2.0,3.0,90,0.00,,,0.55,,2013-11-28 12:52:00,
2013-11-28 08:22:00,17.0,15.0,-100.00,SW,223,2.0,3.0,92,0.00,,,0.55,,2013-11-28 13:22:00,
2013-11-28 08:42:00,17.0,15.0,-100.00,SSW,210,0.0,1.0,93,0.00,,,0.55,,2013-11-28 13:42:00,
2013-11-28 08:52:00,17.0,15.0,-100.00,ENE,62,1.0,2.0,92,0.00,,,0.55,,2013-11-28 13:52:00,
2013-11-28 09:11:00,20.0,17.0,-100.00,East,93,1.0,2.0,88,0.00,,,0.55,,2013-11-28 14:11:00,
2013-11-28 09:22:00,22.0,18.0,-100.00,SSE,161,2.0,2.0,84,0.00,,,0.55,,2013-11-28 14:22:00,
2013-11-28 09:42:00,23.0,19.0,-100.00,SSE,155,1.0,2.0,83,0.00,,,0.55,,2013-11-28 14:42:00,
2013-11-28 09:52:00,23.0,18.0,-100.00,SE,141,2.0,4.0,82,0.00,,,0.55,,2013-11-28 14:52:00,
2013-11-28 10:12:00,25.0,20.0,-100.00,East,92,2.0,3.0,81,0.00,,,0.55,,2013-11-28 15:12:00,
2013-11-28 10:22:00,25.0,19.0,-100.00,SSE,160,2.0,3.0,80,0.00,,,0.55,,2013-11-28 15:22:00,
2013-11-28 10:44:00,24.0,19.0,-100.00,South,184,2.0,3.0,80,0.00,,,0.54,,2013-11-28 15:44:00,
2013-11-28 10:54:00,25.0,19.0,-100.00,South,191,2.0,2.0,78,0.00,,,0.54,,2013-11-28 15:54:00,
2013-11-28 11:13:00,24.0,16.0,-100.00,SE,141,2.0,4.0,68,0.00,,,0.54,,2013-11-28 16:13:00,
2013-11-28 11:23:00,26.0,18.0,-100.00,SSE,147,2.0,3.0,70,0.00,,,0.51,,2013-11-28 16:23:00,
2013-11-28 11:43:00,27.0,17.0,-100.00,South,172,3.0,5.0,65,0.00,,,0.50,,2013-11-28 16:43:00,
2013-11-28 11:54:00,27.0,17.0,-100.00,SW,215,3.0,5.0,66,0.00,,,0.50,,2013-11-28 16:54:00,
2013-11-28 12:12:00,28.0,16.0,-100.00,SSW,203,4.0,5.0,60,0.00,,,0.50,,2013-11-28 17:12:00,
2013-11-28 12:23:00,30.0,21.0,-100.00,SE,140,2.0,4.0,70,0.00,,,0.50,,2013-11-28 17:23:00,
2013-11-28 12:42:00,30.0,18.0,-100.00,South,171,2.0,4.0,62,0.00,,,0.50,,2013-11-28 17:42:00,
2013-11-28 12:52:00,31.0,21.0,-100.00,SSE,155,3.0,5.0,65,0.00,,,0.50,,2013-11-28 17:52:00,
2013-11-28 13:12:00,30.0,20.0,-100.00,SSW,205,3.0,5.0,66,0.00,,,0.50,,2013-11-28 18:12:00,
2013-11-28 13:22:00,31.0,19.0,-100.00,South,174,2.0,4.0,60,0.00,,,0.50,,2013-11-28 18:22:00,
2013-11-28 13:42:00,31.0,21.0,-100.00,SE,134,3.0,4.0,66,0.00,,,0.50,,2013-11-28 18:42:00,
2013-11-28 13:52:00,32.0,20.0,-100.00,South,179,4.0,6.0,60,0.00,,,0.50,,2013-11-28 18:52:00,
2013-11-28 14:11:00,33.0,20.0,-100.00,South,175,3.0,5.0,58,0.00,,,0.50,,2013-11-28 19:11:00,
2013-11-28 14:22:00,34.0,20.0,-100.00,South,172,2.0,4.0,57,0.00,,,0.48,,2013-11-28 19:22:00,
2013-11-28 14:42:00,35.0,23.0,-100.00,South,191,4.0,5.0,62,0.00,,,0.43,,2013-11-28 19:42:00,
2013-11-28 14:52:00,35.0,23.0,-100.00,South,184,4.0,6.0,63,0.00,,,0.33,,2013-11-28 19:52:00,
2013-11-28 15:12:00,35.0,23.0,-100.00,South,172,4.0,5.0,60,0.00,,,0.33,,2013-11-28 20:12:00,
2013-11-28 15:22:00,37.0,25.0,-100.00,South,171,4.0,5.0,61,0.00,,,0.31,,2013-11-28 20:22:00,
2013-11-28 15:42:00,38.0,24.0,-100.00,South,178,3.0,5.0,56,0.00,,,0.29,,2013-11-28 20:42:00,
2013-11-28 15:52:00,38.0,21.0,-100.00,South,182,4.0,6.0,50,0.00,,,0.25,,2013-11-28 20:52:00,
2013-11-28 16:11:00,37.0,23.0,-100.00,SSW,198,6.0,8.0,55,0.00,,,0.24,,2013-11-28 21:11:00,
2013-11-28 16:22:00,37.0,22.0,-100.00,SW,217,4.0,8.0,53,0.00,,,0.23,,2013-11-28 21:22:00,
2013-11-28 16:43:00,38.0,22.0,-100.00,SSW,199,5.0,7.0,53,0.00,,,0.23,,2013-11-28 21:43:00,
2013-11-28 17:13:00,36.0,22.0,-100.00,SSW,209,4.0,7.0,56,0.00,,,0.17,,2013-11-28 22:13:00,
2013-11-28 17:23:00,36.0,22.0,-100.00,SSW,208,5.0,7.0,56,0.00,,,0.16,,2013-11-28 22:23:00,
2013-11-28 17:42:00,35.0,23.0,-100.00,SSW,210,5.0,7.0,62,0.00,,,0.16,,2013-11-28 22:42:00,
2013-11-28 17:53:00,34.0,23.0,-100.00,SSW,206,5.0,7.0,63,0.00,,,0.16,,2013-11-28 22:53:00,
2013-11-28 18:12:00,33.0,22.0,-100.00,South,182,3.0,4.0,65,0.00,,,0.16,,2013-11-28 23:12:00,
2013-11-28 18:22:00,32.0,22.0,-100.00,SSW,200,2.0,4.0,66,0.00,,,0.16,,2013-11-28 23:22:00,
2013-11-28 18:42:00,32.0,22.0,-100.00,South,178,2.0,3.0,66,0.00,,,0.07,,2013-11-28 23:42:00,
2013-11-28 18:52:00,32.0,21.0,-100.00,SSW,210,2.0,4.0,65,0.00,,,0.01,,2013-11-28 23:52:00,
2013-11-28 19:11:00,32.0,21.0,-100.00,SW,232,2.0,3.0,64,0.00,,,0.01,,2013-11-29 00:11:00,
2013-11-28 19:22:00,32.0,21.0,-100.00,SW,232,5.0,7.0,64,0.00,,,0.01,,2013-11-29 00:22:00,
2013-11-28 19:42:00,32.0,21.0,-100.00,SW,226,5.0,8.0,64,0.00,,,0.01,,2013-11-29 00:42:00,
2013-11-28 19:52:00,32.0,21.0,-100.00,SW,226,4.0,6.0,63,0.00,,,0.01,,2013-11-29 00:52:00,
2013-11-28 20:12:00,31.0,21.0,-100.00,SW,229,4.0,7.0,66,0.00,,,0.01,,2013-11-29 01:12:00,
2013-11-28 20:22:00,31.0,21.0,-100.00,SW,234,4.0,6.0,67,0.00,,,0.01,,2013-11-29 01:22:00,
2013-11-28 20:42:00,31.0,21.0,-100.00,SW,234,4.0,7.0,67,0.00,,,0.01,,2013-11-29 01:42:00,
2013-11-28 20:52:00,31.0,21.0,-100.00,SW,230,3.0,5.0,68,0.00,,,0.01,,2013-11-29 01:52:00,
2013-11-28 21:12:00,31.0,21.0,-100.00,SSW,213,3.0,5.0,68,0.00,,,0.01,,2013-11-29 02:12:00,
2013-11-28 21:22:00,30.0,21.0,-100.00,SW,236,2.0,4.0,69,0.00,,,0.01,,2013-11-29 02:22:00,
2013-11-28 21:42:00,31.0,22.0,-100.00,WSW,253,4.0,5.0,68,0.00,,,0.00,,2013-11-29 02:42:00,
2013-11-28 21:52:00,31.0,22.0,-100.00,West,265,3.0,4.0,67,0.00,,,0.00,,2013-11-29 02:52:00,
2013-11-28 22:11:00,31.0,21.0,-100.00,SW,223,2.0,2.0,66,0.00,,,0.00,,2013-11-29 03:11:00,
2013-11-28 22:22:00,31.0,21.0,-100.00,SW,223,2.0,2.0,66,0.00,,,0.00,,2013-11-29 03:22:00,
2013-11-28 22:54:00,32.0,21.0,-100.00,West,280,4.0,5.0,65,0.00,,,0.00,,2013-11-29 03:54:00,
2013-11-28 23:13:00,32.0,21.0,-100.00,West,281,4.0,4.0,65,0.00,,,0.00,,2013-11-29 04:13:00,
2013-11-28 23:23:00,32.0,21.0,-100.00,West,281,4.0,4.0,65,0.00,,,0.00,,2013-11-29 04:23:00,
2013-11-28 23:43:00,32.0,21.0,-100.00,West,275,3.0,4.0,62,0.00,,,0.00,,2013-11-29 04:43:00,
2013-11-28 23:52:00,32.0,20.0,-100.00,WNW,296,3.0,4.0,59,0.00,,,0.00,,2013-11-29 04:52:00,